Flag for U.S.A. Weather past 2 weeks in Raleigh, North Carolina, U.S.A.

Now
70 °F

Partly cloudy.


Feels Like: 73 °F
Forecast: 65 / 86 °F
Wind: No wind

Location: Raleigh-Durham International Airport

Current Time: Aug 30, 2015 at 2:43:31 AM

Latest Report: Aug 30, 2015 at 1:51 AM


Visibility: 10 mi

Pressure: 30.14 "Hg

Humidity: 73%

Dew point: 61 °F

Location of RaleighLocation

Historic Weather in Raleigh — Graph

°F

Raleigh temperature yesterday

Maximum temperature yesterday: 85 °F (at 2:51 PM)
Minimum temperature yesterday: 60 °F (at 5:51 AM)
Average temperature yesterday: 74 °F

Past Weeks' High & Low Weather Summary

 TemperatureHumidityPressure
High94 °F (Aug 17, 3:51 PM)97% (Aug 20, 3:51 AM)30.23 "Hg (Aug 20, 3:51 AM)
Low60 °F (Aug 29, 5:51 AM)30% (Aug 17, 3:51 PM)29.85 "Hg (Aug 24, 6:51 PM)
Average77 °F69%30.03 "Hg
* Reported Aug 15 12:51 AM — Aug 30 12:51 AM, Raleigh, Weather by CustomWeather, © 2015

Note: Actual official high and low records may vary slightly from our data, if they occured in-between our weather recording intervals... More about our weather records

Advertising

Raleigh weather history for previous 24 hours

 ConditionsComfort  
Time TempWeatherWind HumidityBarometerVisibility
12:51 AM
Sun, Aug 30
69 °FPassing clouds.No wind79%30.14 "Hg10 mi
11:51 PM
Sat, Aug 29
71 °FMostly cloudy.No wind73%30.14 "Hg10 mi
10:51 PM71 °FMostly cloudy.No wind76%30.15 "Hg10 mi
9:51 PM73 °FMostly cloudy.No wind69%30.14 "Hg10 mi
8:51 PM75 °FMostly cloudy.No wind64%30.13 "Hg10 mi
7:51 PM79 °FMore clouds than sun.No wind52%30.12 "Hg10 mi
6:51 PM82 °FMore clouds than sun.5 mph44%30.11 "Hg10 mi
5:51 PM83 °FBroken clouds.6 mph43%30.12 "Hg10 mi
4:51 PM85 °FBroken clouds.No wind40%30.14 "Hg10 mi
3:51 PM83 °FPartly sunny.3 mph44%30.16 "Hg10 mi
2:51 PM85 °FOvercast.7 mph39%30.17 "Hg10 mi
1:51 PM84 °FBroken clouds.3 mph43%30.19 "Hg10 mi
12:51 PM83 °FPartly sunny.8 mph46%30.21 "Hg10 mi
11:51 AM81 °FPartly sunny.5 mph49%30.23 "Hg10 mi
10:51 AM79 °FPartly sunny.5 mph54%30.23 "Hg10 mi
9:51 AM76 °FPartly sunny.5 mph60%30.23 "Hg10 mi
8:51 AM72 °FPartly sunny.No wind76%30.22 "Hg10 mi
7:51 AM64 °FBroken clouds.No wind94%30.23 "Hg8 mi
6:51 AM60 °FPassing clouds.No wind96%30.22 "Hg8 mi
5:51 AM60 °FPassing clouds.No wind93%30.19 "Hg7 mi
4:51 AM62 °FPassing clouds.No wind93%30.19 "Hg8 mi
2:51 AM64 °FPassing clouds.No wind87%30.18 "Hg10 mi
Weather by CustomWeather, © 2015

See weather overviewHow to use our weather pages